Location: Chippewa Lake
(41.0698°N, 81.9010°W)
Time: 02:19:46
(UTC+00:00)

Cosmos 1125 Rocket - Pass Details

Date: 09 May 2021
Orbit: 758 x 779 km, 74.0° (Epoch: 24 June)

Event Time Altitude Azimuth Distance (km) Brightness Sun altitude
Exits shadow 06:16:56 54° 343° (NNW) 924 4.0 -30.2°
Drops below altitude 10° 06:21:10 10° 14° (NNE) 2,303 6.9 -30.0°
Sets 06:23:34 0° 17° (NNE) 3,230 7.9 -29.9°
